Location: Krasnoyarskiy Pitomnik
(51.1333°N, 71.6167°E)
Time: 23:25:48
(UTC+00:00)

A-11 Canister half - Pass Details

Date: 16 April 2024
Orbit: 1514 x 1685 km, 47.2° (Epoch: 19 May)

Event Time Altitude Azimuth Distance (km) Brightness Sun altitude
Rises 15:05:15 0° 285° (WNW) 4,824 13.5 -8.5°
Reaches altitude 10° 15:10:12 10° 264° (W) 3,868 12.0 -9.2°
Maximum altitude 15:14:59 15° 234° (SW) 3,520 11.2 -9.9°
Drops below altitude 10° 15:19:50 10° 205° (SSW) 3,914 11.1 -10.5°
Sets 15:24:58 0° 184° (S) 4,916 11.4 -11.2°
